Location: Breezy Point Observatory
(38.9725°N, 81.7133°W)
Time: 16:44:29
(UTC-04:00)

HST - Visible Passes

Search period start: 18 April 2014 00:00
Search period end: 28 April 2014 00:00
Orbit: 548 x 553 km, 28.5° (Epoch: 17 April)

Date Brightness Start Highest point End Pass type
(mag) Time Alt. Az. Time Alt. Az. Time Alt. Az.
18 Apr 2.5 21:14:02 10° SW 21:16:56 18° S 21:18:04 17° SSE visible
19 Apr 2.5 21:07:22 10° SW 21:10:21 19° S 21:12:05 15° SSE visible
20 Apr 2.5 21:00:45 10° SW 21:03:46 19° S 21:06:02 13° SE visible
21 Apr 2.6 20:54:12 10° SW 20:57:11 19° S 20:59:56 11° SE visible
22 Apr 2.7 20:47:42 10° SW 20:50:35 18° S 20:53:27 10° SE visible
23 Apr 2.8 20:41:17 10° SW 20:43:58 17° S 20:46:39 10° SSE visible
